Hlavní strana
METAR-TAF:

METAR-TAF

Letiště :

Rutherford County Airport (Marchman Field)

Rutherfordton, Severní Karolína, Spojené státy americké

zeměpisná šířka: 35-25-42N, zeměpisná délka: 081-56-06W, výška: 329 m

Aktuální stav počasí

Zpráva byla vytvořena před 23 minutami, v 01:15 UTC
Jižní vítr 4 kt
Teplota 4°C
Vlhkost vzduchu 100%
Tlak 1020 hPa
Viditelnost: 16.1 km
Polojasno ve výšce 300 ft
Zataženo ve výšce 2400 ft

METAR: KFQD 190115Z AUTO 17004KT 10SM SCT003 OVC024 04/04 A3011 RMK AO2

Čas: 20:38 (01:38 UTC)


TAF: chybějící

Stav a předpovědi počasí z více než 4 000 letišť (zprávy METAR a TAF).

Červené a žluté tečky na mapě představují dostupné meteorologické stanice.

Když kurzor umístíte na tečku, zobrazí se název stanice.

Pak kliknutím zobrazíte stav a předpověď počasí.

Chcete-li změnit mapu, kliknutím na zelené tlačítko se znaménkem +mapu přiblížíte, kliknutím na zelené tlačítko se znaménkem – mapu oddálíte a kliknutím na zelené šipky přejdete na sousední mapy.


METAR-TAF: